Location: Rounton
(54.4000°N, 1.3500°W)
Time: 05:54:13
(UTC+00:00)

A-11 Canister half - Pass Details

Date: 08 December 2021
Orbit: 1516 x 1684 km, 47.2° (Epoch: 21 January)

Event Time Altitude Azimuth Distance (km) Brightness Sun altitude
Rises 05:42:31 0° 213° (SSW) 4,730 11.4 -20.4°
Reaches altitude 10° 05:45:55 10° 204° (SSW) 3,771 10.9 -19.9°
Maximum altitude 05:54:08 34° 145° (SE) 2,444 10.5 -18.8°
Drops below altitude 10° 06:02:36 10° 86° (E) 3,896 12.2 -17.6°
Sets 06:06:10 0° 77° (ENE) 4,905 12.8 -17.1°
